Terminal Aerodrome Forecast
Issued by NWS

Home | Current Version | Previous Version | Text Only | Print | Product List | Glossary On
Versions: 1 2 3 4 5 6 7 8 9 10 11 12 13 14 15 16 17 18 19 20 21 22 23 24 25 26 27 28 29 30 31 32 33 34 35 36 37 38 39 40 41 42 43 44 45 46 47 48 49 50
000
FTUS46 KLOX 191906 AAA
TAFLAX
TAF AMD
KLAX 191906Z 1919/2024 25006KT P6SM SCT006 BKN140 BKN250
     FM192000 26012KT P6SM BKN010 BKN200
     FM200300 26008KT P6SM OVC012
     FM200900 26007KT 5SM BR OVC015
     FM201400 22005KT P6SM OVC020
     FM202000 25010KT P6SM OVC025=

USA.gov is the U.S. government's official web portal to all federal, state and local government web resources and services.